DW9246 Weather Reports


Display with metric or nautical units.
time (UTC)temp
F
wind
direction
speed
MPH
gust
MPH
rain 1hr
in
rain 24hr
in
rain mn
in
humidity
%
barometer
mb
20201201030023 47 336 4.0 6.0 0.00 0.00 0.00 76 1021.9
20201201025026 47 330 4.0 7.0 0.00 0.00 0.00 76 1021.9
20201201024020 47 330 4.0 6.0 0.00 0.00 0.00 77 1021.9
20201201023018 47 332 3.0 5.0 0.00 0.00 0.00 78 1022.1
20201201022015 48 330 4.0 6.0 0.00 0.00 0.00 77 1022.2
20201201021028 47 332 4.0 5.0 0.00 0.00 0.00 77 1022.2
20201201020028 47 342 4.0 6.0 0.00 0.00 0.00 77 1022.4
20201201015018 48 334 3.0 5.0 0.00 0.00 0.00 76 1022.5
20201201014020 48 340 3.0 5.0 0.00 0.00 0.00 77 1022.5
20201201013016 48 340 3.0 5.0 0.00 0.00 0.00 77 1022.5
20201201012025 48 337 3.0 4.0 0.00 0.00 0.00 75 1022.6
20201201011022 48 338 4.0 6.0 0.00 0.00 0.00 76 1022.4
20201201010030 47 332 3.0 5.0 0.00 0.00 0.00 75 1022.4
20201201005019 48 331 3.0 5.0 0.00 0.00 0.00 74 1022.6
20201201004023 49 336 3.0 5.0 0.00 0.00 0.00 76 1022.7
20201201003026 49 342 4.0 5.0 0.00 0.00 0.00 77 1022.7
20201201002019 49 340 4.0 5.0 0.00 0.00 0.00 77 1022.9
20201201001023 49 338 4.0 5.0 0.00 0.00 0.00 76 1022.8
20201201000031 50 337 4.0 5.0 0.00 0.00 0.00 77 1022.9
20201130235017 49 336 4.0 5.0 0.00 0.00 0.00 76 1022.9
20201130234028 49 335 4.0 7.0 0.00 0.00 0.00 75 1022.9
20201130233034 49 336 4.0 7.0 0.00 0.00 0.00 78 1022.9
20201130232017 49 334 4.0 5.0 0.00 0.00 0.00 78 1023.0
20201130231024 50 331 4.0 5.0 0.00 0.00 0.00 77 1022.9
20201130230101 50 328 4.0 5.0 0.00 0.00 0.00 78 1023.0
20201130225026 50 327 3.0 5.0 0.00 0.00 0.00 78 1023.1
20201130224026 51 327 3.0 5.0 0.00 0.00 0.00 77 1023.1
20201130223030 50 327 4.0 5.0 0.00 0.00 0.00 78 1023.2
20201130222030 50 329 3.0 5.0 0.00 0.00 0.00 79 1023.3
20201130221021 51 332 3.0 5.0 0.00 0.00 0.00 79 1023.2
20201130220114 51 332 4.0 5.0 0.00 0.00 0.00 79 1023.1
20201130215022 51 328 3.0 7.0 0.00 0.00 0.00 78 1023.1
20201130214017 51 329 3.0 5.0 0.00 0.00 0.00 77 1023.1
20201130213028 51 329 3.0 5.0 0.00 0.00 0.00 77 1023.0
20201130212034 51 331 4.0 5.0 0.00 0.00 0.00 77 1023.2
20201130211021 51 336 4.0 5.0 0.00 0.00 0.00 79 1023.1
20201130210030 51 336 4.0 5.0 0.00 0.00 0.00 78 1023.2
20201130205019 51 335 3.0 4.0 0.00 0.00 0.00 79 1023.1
20201130204022 51 336 3.0 5.0 0.00 0.00 0.00 79 1023.1
20201130203023 52 343 4.0 6.0 0.00 0.00 0.00 79 1023.1
20201130202018 52 340 4.0 5.0 0.00 0.00 0.00 79 1023.2
20201130201023 52 334 3.0 4.0 0.00 0.00 0.00 78 1023.2
20201130200030 52 333 3.0 4.0 0.00 0.00 0.00 78 1023.2
20201130195030 52 336 3.0 5.0 0.00 0.00 0.00 79 1023.2
20201130194014 52 345 3.0 4.0 0.00 0.00 0.00 79 1023.3
20201130193018 52 344 3.0 5.0 0.00 0.00 0.00 79 1023.3
20201130192024 52 341 4.0 5.0 0.00 0.00 0.00 79 1023.3
20201130191024 52 337 3.0 5.0 0.00 0.00 0.00 78 1023.2
20201130190025 52 336 3.0 4.0 0.00 0.00 0.00 78 1023.1
20201130185021 52 336 3.0 4.0 0.00 0.00 0.00 78 1023.0
20201130184019 52 337 3.0 4.0 0.00 0.00 0.00 77 1023.1
20201130183025 52 336 3.0 5.0 0.00 0.00 0.00 77 1023.0
20201130182022 52 336 3.0 4.0 0.00 0.00 0.00 77 1023.0
20201130181040 52 337 3.0 5.0 0.00 0.00 0.00 77 1022.9
20201130180024 53 337 3.0 5.0 0.00 0.00 0.00 77 1022.8
20201130175026 53 336 3.0 4.0 0.00 0.00 0.00 76 1022.7
20201130174020 53 339 3.0 4.0 0.00 0.00 0.00 76 1022.8
20201130173031 53 346 3.0 4.0 0.00 0.00 0.00 76 1022.7
20201130172025 54 348 3.0 4.0 0.00 0.00 0.00 76 1022.7
20201130171032 54 349 2.0 3.0 0.00 0.00 0.00 77 1022.6
20201130170042 55 347 3.0 4.0 0.00 0.00 0.00 77 1022.5
20201130165018 55 335 3.0 4.0 0.00 0.00 0.00 75 1022.5
20201130164026 56 322 3.0 4.0 0.00 0.00 0.00 75 1022.5
20201130163031 56 291 1.0 3.0 0.00 0.00 0.00 74 1022.5
20201130162020 58 257 1.0 3.0 0.00 0.00 0.00 72 1022.3
20201130161020 59 246 1.0 3.0 0.00 0.00 0.00 71 1022.3
20201130160031 60 246 1.0 3.0 0.00 0.00 0.00 70 1022.2
20201130155024 60 247 2.0 4.0 0.00 0.00 0.00 69 1022.2
20201130154020 60 235 2.0 4.0 0.00 0.00 0.00 69 1022.2
20201130153023 60 206 3.0 6.0 0.00 0.00 0.00 68 1022.1
20201130152020 60 195 4.0 6.0 0.00 0.00 0.00 67 1022.2
20201130151014 61 199 4.0 8.0 0.00 0.00 0.00 66 1022.2
20201130150023 61 202 3.0 6.0 0.00 0.00 0.00 65 1022.2
20201130145022 61 202 3.0 6.0 0.00 0.00 0.00 64 1022.2
20201130144026 61 201 3.0 7.0 0.00 0.00 0.00 63 1022.3
20201130143027 62 189 5.0 9.0 0.00 0.00 0.00 62 1022.2
20201130142022 62 184 4.0 9.0 0.00 0.00 0.00 61 1022.3
20201130141017 62 211 4.0 8.0 0.00 0.00 0.00 60 1022.3
20201130140021 62 198 4.0 7.0 0.00 0.00 0.00 60 1022.4
20201130135024 62 185 4.0 9.0 0.00 0.00 0.00 59 1022.3
20201130134019 62 204 3.0 6.0 0.00 0.00 0.00 58 1022.4
20201130133016 62 186 4.0 8.0 0.00 0.00 0.00 58 1022.4
20201130132021 62 187 4.0 8.0 0.00 0.00 0.00 58 1022.4
20201130131014 62 178 4.0 8.0 0.00 0.00 0.00 57 1022.5
20201130130019 62 175 5.0 9.0 0.00 0.00 0.00 56 1022.6
20201130125023 63 185 4.0 7.0 0.00 0.00 0.00 58 1022.5
20201130124019 62 170 3.0 8.0 0.00 0.00 0.00 57 1022.5
20201130123021 62 174 4.0 8.0 0.00 0.00 0.00 57 1022.6
20201130122024 62 165 2.0 6.0 0.00 0.00 0.00 57 1022.7
20201130121018 61 170 4.0 8.0 0.00 0.00 0.00 57 1022.7
20201130120031 61 159 4.0 9.0 0.00 0.00 0.00 57 1022.7
20201130115022 61 168 4.0 8.0 0.00 0.00 0.00 59 1022.6
20201130114022 61 157 4.0 8.0 0.00 0.00 0.00 58 1022.9
20201130113019 61 147 3.0 7.0 0.00 0.00 0.00 58 1022.8
20201130112020 61 124 2.0 6.0 0.00 0.00 0.00 57 1022.9
20201130111016 61 132 3.0 6.0 0.00 0.00 0.00 59 1023.1
20201130110027 60 131 2.0 5.0 0.00 0.00 0.00 59 1023.1
20201130105019 60 138 3.0 6.0 0.00 0.00 0.00 59 1023.2
20201130104020 60 138 4.0 8.0 0.00 0.00 0.00 58 1023.5
20201130103021 60 119 3.0 8.0 0.00 0.00 0.00 58 1023.4
20201130102020 60 144 3.0 7.0 0.00 0.00 0.00 59 1023.4
20201130101032 60 126 3.0 6.0 0.00 0.00 0.00 58 1023.3
20201130100022 60 117 3.0 7.0 0.00 0.00 0.00 58 1023.3
20201130095021 60 103 2.0 4.0 0.00 0.00 0.00 58 1023.4
20201130094019 60 94 2.0 4.0 0.00 0.00 0.00 58 1023.2
20201130093025 60 111 2.0 4.0 0.00 0.00 0.00 57 1023.1
20201130092025 60 114 1.0 4.0 0.00 0.00 0.00 59 1022.9
20201130091029 60 97 1.0 3.0 0.00 0.00 0.00 59 1022.7
20201130090030 59 110 1.0 2.0 0.00 0.00 0.00 57 1022.6
20201130085021 59 110 1.0 2.0 0.00 0.00 0.00 59 1022.6
20201130084016 60 85 1.0 3.0 0.00 0.00 0.00 58 1022.5
20201130083021 59 0 0.0 0.0 0.00 0.00 0.00 60 1022.4
20201130082022 57 340 0.0 2.0 0.00 0.00 0.00 66 1022.4
20201130081022 55 339 0.0 2.0 0.00 0.00 0.00 66 1022.3
20201130080026 54 338 2.0 4.0 0.00 0.00 0.00 66 1022.3
20201130075016 53 330 3.0 4.0 0.00 0.00 0.00 67 1022.1
20201130074014 52 327 3.0 4.0 0.00 0.00 0.00 66 1022.0
20201130073015 52 325 4.0 5.0 0.00 0.00 0.00 67 1021.8
20201130072021 51 323 4.0 5.0 0.00 0.00 0.00 68 1021.8
20201130071019 50 328 4.0 5.0 0.00 0.00 0.00 68 1021.6
20201130070023 50 332 4.0 5.0 0.00 0.00 0.00 68 1021.3
20201130065026 50 339 4.0 5.0 0.00 0.00 0.00 68 1021.3
20201130064018 50 336 3.0 5.0 0.00 0.00 0.00 68 1021.2
20201130063021 51 333 4.0 5.0 0.00 0.00 0.00 68 1021.0
20201130062028 51 337 4.0 5.0 0.00 0.00 0.00 67 1021.0
20201130061025 51 337 4.0 5.0 0.00 0.00 0.00 67 1020.9
20201130060023 51 340 4.0 5.0 0.00 0.00 0.00 66 1020.8
20201130055020 51 345 4.0 5.0 0.00 0.00 0.00 66 1020.6
20201130054019 52 344 4.0 5.0 0.00 0.00 0.00 67 1020.6
20201130053025 53 359 3.0 4.0 0.00 0.00 0.00 65 1020.5
20201130052018 54 10 3.0 5.0 0.00 0.00 0.00 66 1020.5
20201130051021 53 51 2.0 4.0 0.00 0.00 0.00 67 1020.4
20201130050023 54 22 3.0 4.0 0.00 0.00 0.00 63 1020.4
20201130045021 53 27 1.0 3.0 0.00 0.00 0.00 64 1020.4
20201130044019 52 4 2.0 3.0 0.00 0.00 0.00 65 1020.2
20201130043023 52 350 2.0 4.0 0.00 0.00 0.00 67 1020.3
20201130042017 52 328 4.0 8.0 0.00 0.00 0.00 67 1020.3
20201130041019 52 330 6.0 8.0 0.00 0.00 0.00 67 1020.3
20201130040019 52 331 5.0 7.0 0.00 0.00 0.00 68 1020.3
20201130035017 51 330 4.0 7.0 0.00 0.00 0.00 69 1020.2
20201130034021 51 325 5.0 7.0 0.00 0.00 0.00 69 1020.4
20201130033023 51 326 4.0 7.0 0.00 0.00 0.00 69 1020.3
20201130032018 51 328 4.0 5.0 0.00 0.00 0.00 69 1020.3
20201130031022 51 325 4.0 7.0 0.00 0.00 0.00 69 1020.2